Location: Newark
(35.6799°N, 139.7636°E)
Time: 01:55:39
(UTC+00:00)

Courier 1B - Pass Details

Date: 17 December 2019
Orbit: 962 x 1209 km, 28.3° (Epoch: 23 January)

Event Time Altitude Azimuth Distance (km) Brightness Sun altitude
Rises 08:31:53 0° 229° (SW) 3,674 12.0 -12.4°
Reaches altitude 10° 08:34:49 10° 219° (SW) 2,754 10.8 -13.0°
Maximum altitude 08:40:29 30° 161° (SSE) 1,763 8.8 -14.1°
Enters shadow 08:45:33 13° 107° (ESE) 2,647 9.3 -15.0°
